Location: All Nations United Methodist Church
(33.0215°N, 96.7483°W)
Time: 15:07:31
(UTC+00:00)

YAOGAN 6 - Pass Details

Date: 24 January 2021
Orbit: 464 x 503 km, 97.0° (Epoch: 06 March)

Event Time Altitude Azimuth Distance (km) Brightness Sun altitude
Rises 12:14:01 0° 9° (N) 2,605 6.2 -15.4°
Reaches altitude 10° 12:16:07 10° 7° (N) 1,717 5.3 -14.9°
Maximum altitude 12:19:49 76° 282° (WNW) 522 2.5 -14.2°
Drops below altitude 10° 12:23:28 10° 197° (SSW) 1,698 5.3 -13.4°
Sets 12:25:32 0° 195° (SSW) 2,573 6.2 -13.0°
